Location: Dayton
(39.7590°N, 84.1920°W)
Time: 19:29:56
(UTC-04:00)

Daily predictions for brighter satellites

Satellite Brightness Start Highest point End
(mag) Time Altitude Azimuth Time Altitude Azimuth Time Altitude Azimuth
Cosmos 2322 Rocket 3.7 20:50:48 10° SE 20:53:47 15° E 20:56:46 10° ENE
Meteor 1-20 Rocket 4.4 20:49:01 10° S 20:54:25 52° E 20:59:45 10° NNE
Cosmos 2263 Rocket 4.2 20:55:28 10° NNE 20:57:53 13° NE 21:00:17 10° ENE
Cosmos 1371 Rocket 4.2 20:53:48 10° SSW 20:59:00 82° WNW 21:04:12 10° NNE
GPS 2-05 Rocket1 4.2 20:56:55 10° SW 20:59:35 22° SSE 21:02:12 10° ESE
ALOS 4.1 20:56:29 10° SSW 21:00:43 34° W 21:05:00 10° NNW
Cosmos 1441 Rocket 3.3 20:58:14 10° N 21:01:54 52° ENE 21:05:33 10° SSE
SL-16 R/B 3.6 20:58:35 10° SE 21:02:09 17° E 21:05:43 10° ENE
Cosmos 405 Rocket 2.7 21:00:40 10° N 21:04:28 87° W 21:08:21 10° S
Abrixas rocket 3.2 21:05:50 10° WSW 21:09:00 47° NNW 21:12:12 10° NE
Resurs 01 Rocket 1.6 21:07:20 10° SSE 21:11:48 86° ENE 21:16:16 10° NNW
Cosmos 1624 Rocket 4.5 21:10:54 10° SSW 21:16:12 70° WNW 21:21:32 10° NNE
Spot 2 Rocket 3.5 21:11:29 10° SSE 21:16:35 82° ENE 21:21:43 10° NNW
NOSS 3-1 (C) 3.6 21:11:52 10° SW 21:17:34 75° NW 21:23:59 10° NNE
Atlas Centaur 2 3.5 21:12:23 10° SW 21:19:31 36° S 21:24:56 13° ESE
CZ-4C R/B 3.3 21:15:36 10° NW 21:22:52 68° WSW 21:30:49 10° SSE
Cosmos 2227 Rocket 4.1 21:18:15 10° NW 21:23:06 30° WSW 21:27:56 10° SSW
Cosmos 1782 Rocket 3.9 21:19:25 10° SSW 21:23:43 68° W 21:28:04 10° N
SeaSat 1 2.5 21:19:10 10° NNE 21:24:07 89° WNW 21:29:03 10° SSW
Cosmos 1954 Rocket 4.5 21:19:06 10° N 21:24:11 45° ENE 21:28:44 13° SE
Cosmos 1140 Rocket 4.2 21:19:47 10° N 21:24:39 38° ENE 21:28:43 14° SE
H-2A R/B 4.1 21:23:45 10° ENE 21:24:44 11° ENE 21:25:43 10° NE
Iridium 30 4.1 21:21:56 10° S 21:24:46 74° E 21:28:13 10° N
CZ-2D R/B 4.1 21:22:07 10° S 21:25:54 52° W 21:29:41 10° NNW
Cosmos 2360 Rocket 4.1 21:30:47 10° E 21:30:47 10° E 21:31:09 10° E
Cosmos 1980 Rocket 2.2 21:24:46 10° SSW 21:30:23 88° WNW 21:36:01 10° NNE
Meteor 1-29 4.2 21:30:10 10° NE 21:32:55 22° E 21:33:53 19° ESE
Cosmos 2151 Rocket 3.8 21:28:52 10° SSE 21:33:04 47° E 21:37:17 10° NNE
Cosmos 44 Rocket 3.6 21:29:43 10° NNW 21:34:22 51° NE 21:37:44 18° SE
Cosmos 1300 Rocket 4.5 21:33:26 16° SE 21:36:02 27° E 21:39:41 10° NNE
Tiangong 1 1.6 21:33:41 10° W 21:36:23 46° N 21:38:33 14° ENE
Cosmos 614 Rocket 4.5 21:32:34 10° N 21:37:24 41° ENE 21:40:45 18° SE
BREEZE-M DEB (TANK) 2.4 21:35:20 10° SW 21:38:03 70° SE 21:45:07 10° ENE
Cosmos 1655 Rocket 4.0 21:31:59 10° S 21:38:14 81° E 21:44:34 10° N
Cosmos 921 Rocket 3.4 21:36:54 10° SSW 21:41:02 64° WNW 21:45:12 10° N
Cosmos 1975 Rocket 3.9 21:36:57 10° NNW 21:41:20 54° W 21:45:40 10° S
USA 186 3.2 21:39:19 10° S 21:42:26 40° W 21:45:38 10° NNW
Cosmos 2026 Rocket 4.4 21:37:22 10° SSW 21:43:39 70° W 21:50:02 10° N
Envisat 3.3 21:40:24 10° S 21:45:26 70° WSW 21:50:32 10° NNW
YAOGAN 6 2.6 21:44:06 20° SSE 21:46:27 61° ENE 21:49:58 10° N
ERBS 2.2 21:43:43 10° SW 21:47:12 86° SE 21:50:41 10° NE
Cosmos 1697 Rocket 4.3 21:42:14 10° SW 21:47:26 38° WNW 21:52:41 10° N
ERS-1 Rocket 3.7 21:45:59 21° ESE 21:48:45 37° ENE 21:53:20 10° N
Meteor 1-11 Rocket 3.8 21:43:49 10° S 21:49:35 59° E 21:55:16 10° NNE
Cosmos 1633 3.5 21:46:13 10° SSW 21:49:43 50° W 21:53:16 10° N
SPOT 5 4.4 21:48:22 18° E 21:50:04 21° ENE 21:53:38 10° NNE
Cosmos 2227 4.2 21:51:59 10° NNW 21:57:39 88° ENE 22:01:40 20° SSE
Helios 1B rocket 2.3 21:59:10 10° NNE 22:03:16 78° ESE 22:07:22 10° S
Cosmos 1939 Rocket 3.5 21:59:35 11° S 22:03:20 54° W 22:07:14 10° NNW
NOSS 2-3 (D) 4.1 22:00:03 10° S 22:04:21 40° ESE 22:09:11 10° NE
ATLAS 3B R/B 4.1 21:59:09 10° NNW 22:04:25 23° NE 22:08:18 14° E
Cosmos 1536 Rocket 3.4 22:01:13 10° N 22:05:34 82° E 22:08:01 25° SSE
Cosmos 1602 4.4 22:04:05 10° SSW 22:07:52 55° W 22:11:39 10° N
Cosmos 1452 Rocket 4.3 22:10:06 10° SW 22:15:16 54° WNW 22:20:28 10° N
Cosmos 1536 2.7 22:15:57 28° S 22:18:02 82° E 22:22:07 10° N
Cosmos 1850 Rocket 4.0 22:14:20 10° NNW 22:19:39 66° ENE 22:21:38 38° SE
Cosmos 1420 Rocket 4.2 22:16:18 10° SSW 22:21:26 69° WNW 22:26:38 10° NNE
Uosat 12 SS-18 rocket 4.3 22:17:04 10° SSW 22:21:45 85° ESE 22:27:32 10° NNE
Cosmos 883 Rocket 4.4 22:17:06 10° N 22:23:13 69° E 22:26:09 32° SSE
Lacrosse 5 rocket 1.1 22:20:27 10° NW 22:24:10 76° SW 22:24:42 62° SSE
Meteor 1-23 Rocket 4.2 22:18:50 10° N 22:24:23 65° E 22:26:29 38° SSE
SPOT 1/Viking Rocket 4.3 22:24:07 33° E 22:25:08 36° ENE 22:29:52 10° N
EXPRESS MD2 4.2 22:25:49 10° W 22:28:40 47° NNW 22:33:51 10° NE
MetOp-A 4.0 22:27:45 37° SSE 22:29:57 80° ENE 22:35:19 10° N
ATLAS 2AS CENTAUR R/B 3.0 22:23:03 10° SSW 22:30:27 58° ESE 22:38:19 10° NE
Cosmos 44 3.7 22:26:09 10° NW 22:30:27 50° WSW 22:31:59 34° S
Helios 1A 4.1 22:28:44 20° SSW 22:31:15 42° W 22:35:18 10° NNW
GENESIS II 4.0 22:27:59 10° NNW 22:31:56 74° ENE 22:32:06 72° E
DELTA 2 R/B (1) 3.7 22:29:22 10° W 22:34:53 59° SSW 22:36:11 46° SSE
Cosmos 2322 Rocket 2.4 22:31:25 10° SSW 22:37:06 73° WNW 22:42:50 10° NNE
NOSS 2-3 (E) 3.8 22:36:49 10° SSW 22:41:28 88° WNW 22:46:50 10° NNE
SAR-Lupe-4 4.2 22:41:53 47° WSW 22:42:14 49° W 22:45:44 10° NNW
Cosmos 2263 Rocket 2.1 22:37:05 10° NNW 22:42:48 77° ENE 22:44:11 52° SE
ARGOS 3.0 22:41:52 48° SSE 22:43:25 85° ENE 22:48:48 10° NNW
SL-16 R/B 2.6 22:40:04 10° SW 22:45:39 62° WNW 22:51:18 10° NNE
Cosmos 2315 Rocket 3.9 22:44:08 10° N 22:50:24 83° E 22:52:23 47° SSE
Okean 2 3.7 22:46:28 10° N 22:49:57 57° NNE 22:49:57 57° NNE
Cosmos 2322 4.1 22:52:32 44° E 22:52:32 44° E 22:57:09 10° NE
Cosmos 1844 Rocket 4.2 22:47:30 10° N 22:51:47 21° NE 22:52:30 21° ENE
YAOGAN 11 4.0 22:54:44 76° NE 22:54:44 76° NE 22:58:56 10° N
Terra 2.9 22:57:53 32° NE 22:57:53 32° NE 23:01:30 10° N
COSMOS 2428 4.4 23:00:05 20° ENE 23:00:05 20° ENE 23:02:11 10° NE
Okean 1-7 Rocket 3.5 22:54:04 10° N 22:58:28 85° NW 22:58:28 85° NW
Nadezhda 2 Rocket 4.4 22:58:14 39° S 23:00:41 85° W 23:06:55 10° N
Okean 1 Rocket 4.0 23:01:25 33° SW 23:02:49 44° WNW 23:07:01 10° N
H-2A R/B 1.8 23:03:02 78° SSE 23:03:23 87° ENE 23:08:28 10° NNW
Atlas Centaur 2 3.3 23:01:53 10° WSW 23:07:34 34° SSW 23:07:34 34° SSW
Tiangong 1 4.2 23:09:21 10° WNW 23:09:33 12° WNW 23:09:33 12° WNW
Cosmos 2360 Rocket 2.0 23:12:28 71° SSW 23:13:07 89° ESE 23:18:47 10° NNE
Cosmos 1607 3.9 23:10:11 10° NNW 23:16:40 85° WSW 23:17:31 69° SSE
Aureole 3 Rocket 4.3 23:09:29 10° N 23:18:36 78° E 23:20:06 60° SSE
Cosmos 1238 Rocket 3.9 23:11:54 10° N 23:18:41 80° E 23:19:27 70° SE
Cosmos 1745 Rocket 4.1 23:25:33 57° ENE 23:25:33 57° ENE 23:30:59 10° NNE
SPOT 5 3.7 23:27:38 43° WSW 23:27:51 43° W 23:32:27 10° NNW
Meteor 1-12 Rocket 4.3 23:28:42 69° NE 23:28:42 69° NE 23:33:44 10° NNE
USA 238 DEB 3.9 23:21:16 10° NNW 23:28:18 60° NE 23:29:14 56° E
USA 238 3.9 23:21:23 10° NNW 23:28:24 60° NE 23:29:21 55° E
Cosmos 1025 Rocket 4.4 23:25:42 10° NNW 23:29:13 34° W 23:29:13 34° W
H-2A R/B 3.8 23:36:33 26° NNE 23:36:33 26° NNE 23:38:44 10° N
Lacrosse 5 3.3 23:41:50 30° NNE 23:41:50 30° NNE 23:44:26 10° NE
DMSP B5D2-2 4.3 23:34:26 10° N 23:39:26 65° WNW 23:39:26 65° WNW
Cosmos 1066 Rocket 4.4 23:41:18 10° NNW 23:45:59 63° NW 23:45:59 63° NW
